Location: Beau Repaire
(50.6144°N, 4.0551°E)
Time: 20:07:20
(UTC+00:00)

RESURS DK-1 - Pass Details

Date: 15 May 2026
Orbit: 522 x 531 km, 69.9° (Epoch: 7 June)

Event Time Altitude Azimuth Distance (km) Brightness Sun altitude
Rises 23:50:53 0° 315° (NW) 2,682 6.5 -20.3°
Reaches altitude 10° 23:53:44 10° 293° (WNW) 1,787 5.1 -20.3°
Enters shadow 23:55:49 16° 261° (W) 1,459 4.3 -20.2°
